,,,PA_Meas_PMT16A,,PR_Meas_QMR101_102,,RH_Meas_QMH101,,SR_Meas_QMS101,,TA_Meas_QMH101,,GenWind,,GenWind,
date,time,status,PA,status,PR,status,RH,status,SR,status,TA,status,DirAvg,status,SpdAvg,
2012-03-01, 00:00:04,VALID,998.405,VALID,0,VALID,94.5081,VALID,0,VALID,23.2702,VALID,79,VALID,1.42461,
2012-03-01, 00:01:04,VALID,998.429,VALID,0,VALID,94.5462,VALID,0.104696,VALID,23.2897,VALID,76,VALID,1.33125,
2012-03-01, 00:02:04,VALID,998.397,VALID,0,VALID,94.592,VALID,0,VALID,23.3092,VALID,52,VALID,1.10703,
2012-03-01, 00:03:04,VALID,998.383,VALID,0,VALID,94.6149,VALID,0,VALID,23.3287,VALID,27,VALID,1.0293,
2012-03-01, 00:04:04,VALID,998.356,VALID,0,VALID,94.6302,VALID,0,VALID,23.3677,VALID,10,VALID,0.970703,
2012-03-01, 00:05:04,VALID,998.295,VALID,0,VALID,94.6531,VALID,0,VALID,23.3872,VALID,6,VALID,0.841016,
2012-03-01, 00:06:04,VALID,998.292,VALID,0,VALID,94.6378,VALID,0,VALID,23.3872,VALID,10,VALID,1.0918,
2012-03-01, 00:07:04,VALID,998.277,VALID,0,VALID,94.6302,VALID,0.104696,VALID,23.3872,VALID,18,VALID,0.939844,
2012-03-01, 00:08:04,VALID,998.238,VALID,0,VALID,94.6378,VALID,0,VALID,23.3872,VALID,18,VALID,0.565625,
2012-03-01, 00:09:04,VALID,998.213,VALID,0,VALID,94.6302,VALID,0,VALID,23.4067,VALID,17,VALID,0.385547,
2012-03-01, 00:10:04,VALID,998.247,VALID,0,VALID,94.6454,VALID,0,VALID,23.4067,VALID,17,VALID,0.209766,
2012-03-01, 00:11:04,VALID,998.194,VALID,0,VALID,94.6378,VALID,0,VALID,23.4475,VALID,17,VALID,0,
2012-03-01, 00:12:04,VALID,998.174,VALID,0,VALID,94.6149,VALID,0.104696,VALID,23.4458,VALID,17,VALID,0,
2012-03-01, 00:13:04,VALID,998.197,VALID,0,VALID,94.6149,VALID,0,VALID,23.4458,VALID,17,VALID,0,
2012-03-01, 00:14:04,VALID,998.159,VALID,0,VALID,94.6378,VALID,0.104696,VALID,23.4458,VALID,17,VALID,0,
2012-03-01, 00:15:04,VALID,998.168,VALID,0,VALID,94.6226,VALID,0.104696,VALID,23.4866,VALID,17,VALID,0,
2012-03-01, 00:16:04,VALID,998.177,VALID,0,VALID,94.6149,VALID,0,VALID,23.4848,VALID,17,VALID,0,
2012-03-01, 00:17:04,VALID,998.179,VALID,0,VALID,94.6302,VALID,0.104696,VALID,23.4848,VALID,147,VALID,0.527734,
2012-03-01, 00:18:04,VALID,998.155,VALID,0,VALID,94.6226,VALID,0,VALID,23.5238,VALID,178,VALID,1.19414,
2012-03-01, 00:19:04,VALID,998.128,VALID,0,VALID,94.6531,VALID,0.104696,VALID,23.5628,VALID,176,VALID,1.36641,
2012-03-01, 00:20:04,VALID,998.1,VALID,0,VALID,94.6683,VALID,0.104696,VALID,23.6196,VALID,196,VALID,0.956641,
2012-03-01, 00:21:04,VALID,998.067,VALID,0,VALID,94.676,VALID,0,VALID,23.6799,VALID,196,VALID,0.605859,
2012-03-01, 00:22:04,VALID,998.015,VALID,0,VALID,94.6607,VALID,0,VALID,23.6799,VALID,196,VALID,0.5875,
2012-03-01, 00:23:04,VALID,997.983,VALID,0,VALID,94.6378,VALID,0.104696,VALID,23.6604,VALID,260,VALID,0.536328,
2012-03-01, 00:24:04,VALID,997.938,VALID,0,VALID,94.5615,VALID,0,VALID,23.6604,VALID,260,VALID,0.708984,
2012-03-01, 00:25:04,VALID,997.915,VALID,0,VALID,94.5386,VALID,0.104696,VALID,23.6604,VALID,280,VALID,0.696094,
2012-03-01, 00:26:04,VALID,997.936,VALID,0,VALID,94.5005,VALID,0,VALID,23.6409,VALID,280,VALID,0.376563,
2012-03-01, 00:27:04,VALID,997.992,VALID,0,VALID,94.4547,VALID,0,VALID,23.6214,VALID,280,VALID,0,
2012-03-01, 00:28:04,VALID,997.993,VALID,0,VALID,94.4013,VALID,0,VALID,23.6019,VALID,280,VALID,0,
2012-03-01, 00:29:04,VALID,997.95,VALID,0,VALID,94.3708,VALID,0,VALID,23.6019,VALID,280,VALID,0.0785156,
2012-03-01, 00:30:04,VALID,997.95,VALID,0,VALID,94.3326,VALID,0,VALID,23.6019,VALID,280,VALID,0.399219,
2012-03-01, 00:31:04,VALID,997.945,VALID,0,VALID,94.3326,VALID,0,VALID,23.6036,VALID,280,VALID,0,
2012-03-01, 00:32:04,VALID,997.969,VALID,0,VALID,94.3097,VALID,0,VALID,23.5628,VALID,280,VALID,0,
2012-03-01, 00:33:04,VALID,997.943,VALID,0,VALID,94.2945,VALID,0,VALID,23.5628,VALID,280,VALID,0,
2012-03-01, 00:34:04,VALID,997.953,VALID,0,VALID,94.2868,VALID,0.104696,VALID,23.5433,VALID,280,VALID,0.510547,
2012-03-01, 00:35:04,VALID,997.914,VALID,0,VALID,94.2945,VALID,0,VALID,23.5433,VALID,280,VALID,0.497266,
2012-03-01, 00:36:04,VALID,997.899,VALID,0,VALID,94.2868,VALID,0,VALID,23.5451,VALID,280,VALID,0.617969,
2012-03-01, 00:37:04,VALID,997.858,VALID,0,VALID,94.2868,VALID,0,VALID,23.5256,VALID,280,VALID,0.726172,
2012-03-01, 00:38:04,VALID,997.834,VALID,0,VALID,94.2563,VALID,0,VALID,23.4653,VALID,280,VALID,0.786719,
2012-03-01, 00:39:04,VALID,997.837,VALID,0,VALID,94.2868,VALID,0,VALID,23.4653,VALID,280,VALID,0.709766,
2012-03-01, 00:40:04,VALID,997.815,VALID,0,VALID,94.2868,VALID,0,VALID,23.4671,VALID,280,VALID,0.409375,
2012-03-01, 00:41:04,VALID,997.796,VALID,0,VALID,94.3021,VALID,0,VALID,23.4263,VALID,280,VALID,0,
2012-03-01, 00:42:04,VALID,997.768,VALID,0,VALID,94.3097,VALID,0,VALID,23.4067,VALID,280,VALID,0,
2012-03-01, 00:43:04,VALID,997.79,VALID,0,VALID,94.3174,VALID,0,VALID,23.3872,VALID,280,VALID,0,
2012-03-01, 00:44:04,VALID,997.795,VALID,0,VALID,94.3174,VALID,0,VALID,23.3677,VALID,280,VALID,0,
2012-03-01, 00:45:04,VALID,997.774,VALID,0,VALID,94.2868,VALID,0,VALID,23.3695,VALID,280,VALID,0,
2012-03-01, 00:46:04,VALID,997.741,VALID,0,VALID,94.2716,VALID,0,VALID,23.3287,VALID,280,VALID,0,
2012-03-01, 00:47:04,VALID,997.739,VALID,0,VALID,94.2563,VALID,0,VALID,23.3092,VALID,280,VALID,0,
2012-03-01, 00:48:04,VALID,997.744,VALID,0,VALID,94.2716,VALID,0,VALID,23.2702,VALID,280,VALID,0,
2012-03-01, 00:49:04,VALID,997.733,VALID,0,VALID,94.3479,VALID,0,VALID,23.311,VALID,280,VALID,0,
2012-03-01, 00:50:04,VALID,997.705,VALID,0,VALID,94.4242,VALID,0,VALID,23.311,VALID,280,VALID,0,
2012-03-01, 00:51:04,VALID,997.718,VALID,0,VALID,94.4471,VALID,0,VALID,23.2897,VALID,280,VALID,0,
2012-03-01, 00:52:04,VALID,997.696,VALID,0,VALID,94.47,VALID,0,VALID,23.2897,VALID,280,VALID,0,
2012-03-01, 00:53:04,VALID,997.702,VALID,0,VALID,94.5234,VALID,0,VALID,23.311,VALID,280,VALID,0,
2012-03-01, 00:54:04,VALID,997.704,VALID,0,VALID,94.5462,VALID,0,VALID,23.3305,VALID,280,VALID,0,
2012-03-01, 00:55:04,VALID,997.705,VALID,0,VALID,94.5997,VALID,0,VALID,23.3287,VALID,280,VALID,0,
2012-03-01, 00:56:04,VALID,997.696,VALID,0,VALID,94.5691,VALID,0,VALID,23.3092,VALID,280,VALID,0,
2012-03-01, 00:57:04,VALID,997.677,VALID,0,VALID,94.5691,VALID,0,VALID,23.311,VALID,280,VALID,0,
2012-03-01, 00:58:04,VALID,997.664,VALID,0,VALID,94.5157,VALID,0,VALID,23.2915,VALID,280,VALID,0,
2012-03-01, 00:59:04,VALID,997.678,VALID,0,VALID,94.4776,VALID,0,VALID,23.2329,VALID,280,VALID,0,
2012-03-01, 01:00:04,VALID,997.648,VALID,0,VALID,94.4318,VALID,0,VALID,23.1726,VALID,280,VALID,0.00625,
2012-03-01, 01:01:04,VALID,997.654,VALID,0,VALID,94.4013,VALID,0,VALID,23.1549,VALID,347,VALID,0.903516,
2012-03-01, 01:02:04,VALID,997.615,VALID,0,VALID,94.3708,VALID,0,VALID,23.1159,VALID,351,VALID,0.875391,
2012-03-01, 01:03:04,VALID,997.587,VALID,0,VALID,94.3784,VALID,0,VALID,23.0751,VALID,351,VALID,0.385547,
2012-03-01, 01:04:04,VALID,997.589,VALID,0,VALID,94.4776,VALID,0,VALID,23.0946,VALID,351,VALID,0.315234,
2012-03-01, 01:05:04,VALID,997.576,VALID,0,VALID,94.5081,VALID,0,VALID,23.0964,VALID,351,VALID,0,
2012-03-01, 01:06:04,VALID,997.565,VALID,0,VALID,94.5615,VALID,0,VALID,23.0964,VALID,351,VALID,0,
2012-03-01, 01:07:04,VALID,997.551,VALID,0,VALID,94.5691,VALID,0.104696,VALID,23.0751,VALID,351,VALID,0,
2012-03-01, 01:08:04,VALID,997.548,VALID,0,VALID,94.5997,VALID,0,VALID,23.0769,VALID,351,VALID,0,
2012-03-01, 01:09:04,VALID,997.553,VALID,0,VALID,94.5768,VALID,0,VALID,23.0361,VALID,351,VALID,0,
2012-03-01, 01:10:04,VALID,997.5,VALID,0,VALID,94.5768,VALID,0,VALID,23.0361,VALID,351,VALID,0,
2012-03-01, 01:11:04,VALID,997.469,VALID,0,VALID,94.5844,VALID,0,VALID,23.0361,VALID,351,VALID,0,
2012-03-01, 01:12:04,VALID,997.445,VALID,0,VALID,94.6073,VALID,0,VALID,23.0556,VALID,351,VALID,0.0636719,
2012-03-01, 01:13:04,VALID,997.405,VALID,0,VALID,94.6454,VALID,0,VALID,23.0964,VALID,309,VALID,0.558594,
2012-03-01, 01:14:04,VALID,997.376,VALID,0,VALID,94.6988,VALID,0.104696,VALID,23.1336,VALID,297,VALID,0.562109,
2012-03-01, 01:15:04,VALID,997.41,VALID,0,VALID,94.7217,VALID,0,VALID,23.1744,VALID,297,VALID,0.05,
2012-03-01, 01:16:04,VALID,997.428,VALID,0,VALID,94.7599,VALID,0,VALID,23.1726,VALID,297,VALID,0,
2012-03-01, 01:17:04,VALID,997.479,VALID,0,VALID,94.7599,VALID,0,VALID,23.1921,VALID,297,VALID,0.405469,
2012-03-01, 01:18:04,VALID,997.427,VALID,0,VALID,94.7675,VALID,0.104696,VALID,23.1921,VALID,297,VALID,0.622656,
2012-03-01, 01:19:04,VALID,997.407,VALID,0,VALID,94.7828,VALID,0,VALID,23.2117,VALID,276,VALID,0.810547,
2012-03-01, 01:20:04,VALID,997.377,VALID,0,VALID,94.7828,VALID,0,VALID,23.2542,VALID,172,VALID,0.991797,
2012-03-01, 01:21:04,VALID,997.309,VALID,0,VALID,94.8057,VALID,0,VALID,23.2932,VALID,188,VALID,1.39609,
2012-03-01, 01:22:04,VALID,997.314,VALID,0,VALID,94.8057,VALID,0,VALID,23.2915,VALID,186,VALID,1.23945,
2012-03-01, 01:23:04,VALID,997.347,VALID,0,VALID,94.8057,VALID,0,VALID,23.311,VALID,186,VALID,0.691016,
2012-03-01, 01:24:04,VALID,997.342,VALID,0,VALID,94.8362,VALID,0,VALID,23.3305,VALID,186,VALID,0.684766,
2012-03-01, 01:25:04,VALID,997.311,VALID,0,VALID,94.8209,VALID,0,VALID,23.35,VALID,186,VALID,0.427344,
2012-03-01, 01:26:04,VALID,997.284,VALID,0,VALID,94.8591,VALID,0,VALID,23.3695,VALID,183,VALID,0.517578,
2012-03-01, 01:27:04,VALID,997.302,VALID,0,VALID,94.8438,VALID,0,VALID,23.3713,VALID,162,VALID,0.836719,
2012-03-01, 01:28:04,VALID,997.254,VALID,0,VALID,94.8285,VALID,0,VALID,23.35,VALID,161,VALID,0.721484,
2012-03-01, 01:29:04,VALID,997.272,VALID,0,VALID,94.7904,VALID,0,VALID,23.3305,VALID,161,VALID,0.673047,
2012-03-01, 01:30:04,VALID,997.284,VALID,0,VALID,94.7446,VALID,0,VALID,23.311,VALID,161,VALID,0.724609,
2012-03-01, 01:31:04,VALID,997.228,VALID,0,VALID,94.7065,VALID,0,VALID,23.3127,VALID,151,VALID,0.967578,
2012-03-01, 01:32:04,VALID,997.238,VALID,0,VALID,94.6912,VALID,0,VALID,23.2524,VALID,150,VALID,0.9625,
2012-03-01, 01:33:04,VALID,997.229,VALID,0,VALID,94.676,VALID,0,VALID,23.2524,VALID,150,VALID,0.838281,
2012-03-01, 01:34:04,VALID,997.195,VALID,0,VALID,94.6302,VALID,0,VALID,23.2524,VALID,143,VALID,0.753906,
2012-03-01, 01:35:04,VALID,997.198,VALID,0,VALID,94.6226,VALID,0,VALID,23.2524,VALID,143,VALID,0.567578,
2012-03-01, 01:36:04,VALID,997.176,VALID,0,VALID,94.6378,VALID,0,VALID,23.2312,VALID,143,VALID,0.635938,
2012-03-01, 01:37:04,VALID,997.168,VALID,0,VALID,94.6531,VALID,0,VALID,23.2312,VALID,143,VALID,0.276953,
2012-03-01, 01:38:04,VALID,997.164,VALID,0,VALID,94.6607,VALID,0,VALID,23.2524,VALID,143,VALID,0.187109,
2012-03-01, 01:39:04,VALID,997.165,VALID,0,VALID,94.6454,VALID,0.104696,VALID,23.2312,VALID,143,VALID,0.009375,
2012-03-01, 01:40:04,VALID,997.177,VALID,0,VALID,94.6683,VALID,0,VALID,23.2507,VALID,143,VALID,0.649219,
2012-03-01, 01:41:04,VALID,997.16,VALID,0,VALID,94.6988,VALID,0,VALID,23.2507,VALID,143,VALID,0.253516,
2012-03-01, 01:42:04,VALID,997.165,VALID,0,VALID,94.7141,VALID,0,VALID,23.2702,VALID,143,VALID,0,
2012-03-01, 01:43:04,VALID,997.133,VALID,0,VALID,94.7217,VALID,0,VALID,23.3092,VALID,143,VALID,0.0960938,
2012-03-01, 01:44:04,VALID,997.128,VALID,0,VALID,94.7599,VALID,0,VALID,23.3092,VALID,143,VALID,0,
2012-03-01, 01:45:04,VALID,997.132,VALID,0,VALID,94.7446,VALID,0,VALID,23.35,VALID,143,VALID,0.0117188,
2012-03-01, 01:46:04,VALID,997.131,VALID,0,VALID,94.7599,VALID,0,VALID,23.3287,VALID,143,VALID,0,
2012-03-01, 01:47:04,VALID,997.141,VALID,0,VALID,94.7675,VALID,0.104696,VALID,23.3677,VALID,143,VALID,0,
2012-03-01, 01:48:04,VALID,997.081,VALID,0,VALID,94.7675,VALID,0,VALID,23.3677,VALID,143,VALID,0,
2012-03-01, 01:49:04,VALID,997.08,VALID,0,VALID,94.7675,VALID,0,VALID,23.4085,VALID,143,VALID,0,
2012-03-01, 01:50:04,VALID,997.053,VALID,0,VALID,94.7751,VALID,0,VALID,23.4085,VALID,143,VALID,0,
2012-03-01, 01:51:04,VALID,997.047,VALID,0,VALID,94.7751,VALID,0,VALID,23.4085,VALID,143,VALID,0.294141,
2012-03-01, 01:52:04,VALID,997.066,VALID,0,VALID,94.7828,VALID,0,VALID,23.428,VALID,143,VALID,0.457031,
2012-03-01, 01:53:04,VALID,997.045,VALID,0,VALID,94.7599,VALID,0,VALID,23.4085,VALID,143,VALID,0.657031,
2012-03-01, 01:54:04,VALID,997.059,VALID,0,VALID,94.7446,VALID,0,VALID,23.4085,VALID,143,VALID,0.109766,
2012-03-01, 01:55:04,VALID,997.074,VALID,0,VALID,94.7599,VALID,0,VALID,23.428,VALID,143,VALID,0.0289063,
2012-03-01, 01:56:04,VALID,997.073,VALID,0,VALID,94.7446,VALID,0,VALID,23.428,VALID,143,VALID,0,
2012-03-01, 01:57:04,VALID,997.069,VALID,0,VALID,94.737,VALID,0,VALID,23.4085,VALID,143,VALID,0,
2012-03-01, 01:58:04,VALID,997.066,VALID,0,VALID,94.7294,VALID,0,VALID,23.4085,VALID,143,VALID,0,
2012-03-01, 01:59:04,VALID,997.079,VALID,0,VALID,94.737,VALID,0,VALID,23.4298,VALID,143,VALID,0,
2012-03-01, 02:00:04,VALID,997.025,VALID,0,VALID,94.7141,VALID,0,VALID,23.389,VALID,143,VALID,0,
2012-03-01, 02:01:04,VALID,997.057,VALID,0,VALID,94.7294,VALID,0,VALID,23.4298,VALID,143,VALID,0,
2012-03-01, 02:02:04,VALID,997.048,VALID,0,VALID,94.7294,VALID,0,VALID,23.4085,VALID,143,VALID,0,
2012-03-01, 02:03:04,VALID,997.047,VALID,0,VALID,94.7217,VALID,0,VALID,23.4085,VALID,143,VALID,0,
2012-03-01, 02:04:04,VALID,997.045,VALID,0,VALID,94.7217,VALID,0,VALID,23.4103,VALID,143,VALID,0,
2012-03-01, 02:05:04,VALID,997.04,VALID,0,VALID,94.7217,VALID,0,VALID,23.3872,VALID,143,VALID,0,
2012-03-01, 02:06:04,VALID,997.051,VALID,0,VALID,94.7294,VALID,0,VALID,23.4067,VALID,143,VALID,0,
2012-03-01, 02:07:04,VALID,997.027,VALID,0,VALID,94.7294,VALID,0,VALID,23.4067,VALID,143,VALID,0,
2012-03-01, 02:08:04,VALID,997.03,VALID,0,VALID,94.7217,VALID,0,VALID,23.4263,VALID,143,VALID,0,
2012-03-01, 02:09:04,VALID,997.023,VALID,0,VALID,94.7523,VALID,0,VALID,23.4067,VALID,143,VALID,0,
2012-03-01, 02:10:04,VALID,997.02,VALID,0,VALID,94.7294,VALID,0,VALID,23.4067,VALID,143,VALID,0.489453,
2012-03-01, 02:11:04,VALID,996.999,VALID,0,VALID,94.7446,VALID,0,VALID,23.4458,VALID,143,VALID,0.700391,
2012-03-01, 02:12:04,VALID,997.015,VALID,0,VALID,94.7217,VALID,0,VALID,23.4458,VALID,143,VALID,0.673437,
2012-03-01, 02:13:04,VALID,997.029,VALID,0,VALID,94.7294,VALID,0.104696,VALID,23.4848,VALID,143,VALID,0.641797,
2012-03-01, 02:14:04,VALID,997.03,VALID,0,VALID,94.7294,VALID,0,VALID,23.4848,VALID,145,VALID,0.926172,
2012-03-01, 02:15:04,VALID,997.065,VALID,0,VALID,94.7294,VALID,0.104696,VALID,23.4848,VALID,151,VALID,0.860937,
2012-03-01, 02:16:04,VALID,997.071,VALID,0,VALID,94.7141,VALID,0,VALID,23.5043,VALID,150,VALID,0.634375,
2012-03-01, 02:17:04,VALID,997.038,VALID,0,VALID,94.7217,VALID,0,VALID,23.5238,VALID,143,VALID,0.709766,
2012-03-01, 02:18:04,VALID,997.059,VALID,0,VALID,94.7294,VALID,0,VALID,23.5238,VALID,143,VALID,0.457812,
2012-03-01, 02:19:04,VALID,997.023,VALID,0,VALID,94.7065,VALID,0,VALID,23.5433,VALID,143,VALID,0.288281,
2012-03-01, 02:20:04,VALID,997.027,VALID,0,VALID,94.6988,VALID,0,VALID,23.5451,VALID,143,VALID,0.369141,
2012-03-01, 02:21:04,VALID,997.03,VALID,0,VALID,94.6683,VALID,0,VALID,23.5451,VALID,143,VALID,0.351563,
2012-03-01, 02:22:04,VALID,997.004,VALID,0,VALID,94.6836,VALID,0,VALID,23.5646,VALID,143,VALID,0.342969,
2012-03-01, 02:23:04,VALID,997.037,VALID,0,VALID,94.6607,VALID,0,VALID,23.5451,VALID,143,VALID,0.0257812,
2012-03-01, 02:24:04,VALID,997.012,VALID,0,VALID,94.6531,VALID,0,VALID,23.5451,VALID,143,VALID,0,
2012-03-01, 02:25:04,VALID,997.005,VALID,0,VALID,94.6531,VALID,0,VALID,23.5646,VALID,143,VALID,0.386328,
2012-03-01, 02:26:04,VALID,997.045,VALID,0,VALID,94.6302,VALID,0,VALID,23.5646,VALID,143,VALID,0.200781,
2012-03-01, 02:27:04,VALID,997.043,VALID,0,VALID,94.6302,VALID,0,VALID,23.5451,VALID,143,VALID,0,
2012-03-01, 02:28:04,VALID,997.038,VALID,0,VALID,94.6149,VALID,0,VALID,23.5646,VALID,143,VALID,0.401172,
2012-03-01, 02:29:04,VALID,997.032,VALID,0,VALID,94.6149,VALID,0,VALID,23.5664,VALID,143,VALID,0.345703,
2012-03-01, 02:30:04,VALID,996.996,VALID,0,VALID,94.6226,VALID,0,VALID,23.5451,VALID,143,VALID,0.294922,
2012-03-01, 02:31:04,VALID,996.969,VALID,0,VALID,94.592,VALID,0,VALID,23.5451,VALID,143,VALID,0.151953,
2012-03-01, 02:32:04,VALID,996.95,VALID,0,VALID,94.6149,VALID,0,VALID,23.5451,VALID,143,VALID,0.217969,
2012-03-01, 02:33:04,VALID,996.926,VALID,0,VALID,94.5844,VALID,0,VALID,23.5469,VALID,143,VALID,0.137891,
2012-03-01, 02:34:04,VALID,996.879,VALID,0,VALID,94.5997,VALID,0,VALID,23.5451,VALID,143,VALID,0,
2012-03-01, 02:35:04,VALID,996.844,VALID,0,VALID,94.5844,VALID,0,VALID,23.5469,VALID,143,VALID,0,
2012-03-01, 02:36:04,VALID,996.853,VALID,0,VALID,94.5462,VALID,0,VALID,23.5274,VALID,143,VALID,0,
2012-03-01, 02:37:04,VALID,996.836,VALID,0,VALID,94.5234,VALID,0,VALID,23.5274,VALID,143,VALID,0.341406,
2012-03-01, 02:38:04,VALID,996.855,VALID,0,VALID,94.5157,VALID,0,VALID,23.5061,VALID,143,VALID,0.350781,
2012-03-01, 02:39:04,VALID,996.868,VALID,0,VALID,94.531,VALID,0,VALID,23.5256,VALID,143,VALID,0.480078,
2012-03-01, 02:40:04,VALID,996.883,VALID,0,VALID,94.5386,VALID,0,VALID,23.5061,VALID,143,VALID,0.407813,
2012-03-01, 02:41:04,VALID,996.888,VALID,0,VALID,94.5462,VALID,0,VALID,23.5061,VALID,143,VALID,0.376563,
2012-03-01, 02:42:04,VALID,996.921,VALID,0,VALID,94.5386,VALID,0,VALID,23.4866,VALID,143,VALID,0.268359,
2012-03-01, 02:43:04,VALID,996.95,VALID,0.5,VALID,94.5539,VALID,0,VALID,23.4866,VALID,143,VALID,0.429297,
2012-03-01, 02:44:04,VALID,996.992,VALID,0,VALID,94.592,VALID,0,VALID,23.4866,VALID,143,VALID,0.309766,
2012-03-01, 02:45:04,VALID,996.966,VALID,0,VALID,94.5768,VALID,0,VALID,23.5079,VALID,143,VALID,0.170312,
2012-03-01, 02:46:04,VALID,996.962,VALID,0,VALID,94.592,VALID,0,VALID,23.4866,VALID,143,VALID,0.0269531,
2012-03-01, 02:47:04,VALID,996.985,VALID,0,VALID,94.592,VALID,0,VALID,23.4884,VALID,143,VALID,0.408203,
2012-03-01, 02:48:04,VALID,996.996,VALID,0,VALID,94.592,VALID,0,VALID,23.5079,VALID,143,VALID,0.285156,
2012-03-01, 02:49:04,VALID,996.982,VALID,0,VALID,94.6073,VALID,0,VALID,23.5079,VALID,143,VALID,0.251563,
2012-03-01, 02:50:04,VALID,996.953,VALID,0,VALID,94.6378,VALID,0,VALID,23.4848,VALID,143,VALID,0.305078,
2012-03-01, 02:51:04,VALID,996.968,VALID,0,VALID,94.6454,VALID,0,VALID,23.4848,VALID,143,VALID,0.186328,
2012-03-01, 02:52:04,VALID,996.94,VALID,0,VALID,94.6607,VALID,0,VALID,23.4653,VALID,143,VALID,0,
2012-03-01, 02:53:04,VALID,996.905,VALID,0,VALID,94.6226,VALID,0,VALID,23.4458,VALID,143,VALID,0,
2012-03-01, 02:54:04,VALID,996.934,VALID,0,VALID,94.6073,VALID,0,VALID,23.4067,VALID,143,VALID,0,
2012-03-01, 02:55:04,VALID,996.891,VALID,0,VALID,94.6073,VALID,0,VALID,23.3872,VALID,143,VALID,0,
2012-03-01, 02:56:04,VALID,996.897,VALID,0,VALID,94.5844,VALID,0,VALID,23.3482,VALID,143,VALID,0.171484,
2012-03-01, 02:57:04,VALID,996.866,VALID,0,VALID,94.6073,VALID,0,VALID,23.3695,VALID,143,VALID,0,
2012-03-01, 02:58:04,VALID,996.887,VALID,0,VALID,94.6073,VALID,0,VALID,23.3695,VALID,143,VALID,0,
2012-03-01, 02:59:04,VALID,996.925,VALID,0,VALID,94.6454,VALID,0,VALID,23.3482,VALID,143,VALID,0,
2012-03-01, 03:00:04,VALID,996.897,VALID,0,VALID,94.6454,VALID,0,VALID,23.3695,VALID,143,VALID,0,
2012-03-01, 03:01:04,VALID,996.887,VALID,0,VALID,94.676,VALID,0,VALID,23.389,VALID,143,VALID,0,
2012-03-01, 03:02:04,VALID,996.841,VALID,0,VALID,94.6988,VALID,0,VALID,23.3695,VALID,143,VALID,0,
2012-03-01, 03:03:04,VALID,996.878,VALID,0,VALID,94.6988,VALID,0,VALID,23.3482,VALID,143,VALID,0,
2012-03-01, 03:04:04,VALID,996.862,VALID,0,VALID,94.6836,VALID,0,VALID,23.311,VALID,143,VALID,0,
2012-03-01, 03:05:04,VALID,996.877,VALID,0,VALID,94.6531,VALID,0,VALID,23.2719,VALID,143,VALID,0,
2012-03-01, 03:06:04,VALID,996.955,VALID,0,VALID,94.6226,VALID,0,VALID,23.2134,VALID,143,VALID,0,
2012-03-01, 03:07:04,VALID,997,VALID,0,VALID,94.592,VALID,0,VALID,23.1549,VALID,143,VALID,0,
2012-03-01, 03:08:04,VALID,997.027,VALID,0,VALID,94.6073,VALID,0,VALID,23.1336,VALID,4,VALID,0.732813,
2012-03-01, 03:09:04,VALID,997.047,VALID,0,VALID,94.6683,VALID,0,VALID,23.1336,VALID,4,VALID,0.810938,
2012-03-01, 03:10:04,VALID,997.002,VALID,0,VALID,94.676,VALID,0,VALID,23.1159,VALID,4,VALID,0.847656,
2012-03-01, 03:11:04,VALID,997.017,VALID,0,VALID,94.6912,VALID,0,VALID,23.0964,VALID,4,VALID,0.683203,
2012-03-01, 03:12:04,VALID,997.025,VALID,0,VALID,94.7141,VALID,0,VALID,23.0556,VALID,4,VALID,0.449219,
2012-03-01, 03:13:04,VALID,997.009,VALID,0,VALID,94.7446,VALID,0,VALID,23.0556,VALID,4,VALID,0.397656,
2012-03-01, 03:14:04,VALID,996.984,VALID,0,VALID,94.7599,VALID,0,VALID,23.0556,VALID,4,VALID,0.364453,
2012-03-01, 03:15:04,VALID,996.995,VALID,0,VALID,94.798,VALID,0,VALID,23.0769,VALID,4,VALID,0.145703,
2012-03-01, 03:16:04,VALID,997.022,VALID,0,VALID,94.8285,VALID,0,VALID,23.0769,VALID,4,VALID,0,
2012-03-01, 03:17:04,VALID,997.088,VALID,0,VALID,94.8438,VALID,0,VALID,23.0556,VALID,4,VALID,0,
2012-03-01, 03:18:04,VALID,997.1,VALID,0,VALID,94.8285,VALID,0,VALID,23.0361,VALID,4,VALID,0,
2012-03-01, 03:19:04,VALID,997.113,VALID,0,VALID,94.8591,VALID,0,VALID,23.0166,VALID,4,VALID,0,
2012-03-01, 03:20:04,VALID,997.112,VALID,0,VALID,94.8591,VALID,0,VALID,23.0183,VALID,4,VALID,0,
2012-03-01, 03:21:04,VALID,997.127,VALID,0,VALID,94.8591,VALID,0,VALID,23.0166,VALID,6,VALID,0.682422,
2012-03-01, 03:22:04,VALID,997.124,VALID,0,VALID,94.8896,VALID,0,VALID,23.0361,VALID,68,VALID,1.06406,
2012-03-01, 03:23:04,VALID,997.083,VALID,0,VALID,94.9201,VALID,0,VALID,23.0769,VALID,114,VALID,0.695313,
2012-03-01, 03:24:04,VALID,997.139,VALID,0,VALID,94.9125,VALID,0,VALID,23.0769,VALID,134,VALID,0.609766,
2012-03-01, 03:25:04,VALID,997.259,VALID,0,VALID,94.9506,VALID,0,VALID,23.0361,VALID,43,VALID,3.80039,
2012-03-01, 03:26:04,VALID,997.338,VALID,0,VALID,94.9506,VALID,0,VALID,23.0556,VALID,39,VALID,3.74492,
2012-03-01, 03:27:04,VALID,997.342,VALID,0,VALID,94.9888,VALID,0,VALID,23.0964,VALID,28,VALID,2.13008,
2012-03-01, 03:28:04,VALID,997.324,VALID,0,VALID,95.004,VALID,0,VALID,23.1549,VALID,32,VALID,2.77578,
2012-03-01, 03:29:04,VALID,997.321,VALID,0,VALID,95.0345,VALID,0,VALID,23.2524,VALID,40,VALID,2.00312,
2012-03-01, 03:30:04,VALID,997.262,VALID,0,VALID,95.0498,VALID,0,VALID,23.3092,VALID,21,VALID,1.60234,
2012-03-01, 03:31:04,VALID,997.247,VALID,0,VALID,95.0651,VALID,0,VALID,23.35,VALID,18,VALID,1.32617,
2012-03-01, 03:32:04,VALID,997.27,VALID,0,VALID,95.0651,VALID,0,VALID,23.3677,VALID,32,VALID,0.924219,
2012-03-01, 03:33:04,VALID,997.287,VALID,0,VALID,95.088,VALID,0,VALID,23.4067,VALID,35,VALID,0.896875,
2012-03-01, 03:34:04,VALID,997.233,VALID,0.5,VALID,95.0956,VALID,0,VALID,23.4263,VALID,31,VALID,0.478125,
2012-03-01, 03:35:04,VALID,997.22,VALID,0,VALID,95.0956,VALID,0,VALID,23.4458,VALID,31,VALID,0.236328,
2012-03-01, 03:36:04,VALID,997.262,VALID,0,VALID,95.1032,VALID,0,VALID,23.4866,VALID,79,VALID,0.802344,
2012-03-01, 03:37:04,VALID,997.303,VALID,0,VALID,95.1108,VALID,0,VALID,23.4458,VALID,79,VALID,1.13984,
2012-03-01, 03:38:04,VALID,997.319,VALID,0,VALID,95.1108,VALID,0,VALID,23.4653,VALID,85,VALID,0.925781,
2012-03-01, 03:39:04,VALID,997.316,VALID,0,VALID,95.1032,VALID,0,VALID,23.4653,VALID,100,VALID,1.23438,
2012-03-01, 03:40:04,VALID,997.292,VALID,0.5,VALID,95.0956,VALID,0,VALID,23.4848,VALID,100,VALID,0.767578,
2012-03-01, 03:41:04,VALID,997.29,VALID,0.5,VALID,95.0956,VALID,0,VALID,23.4848,VALID,100,VALID,0.807422,
2012-03-01, 03:42:04,VALID,997.232,VALID,0.5,VALID,95.0956,VALID,0,VALID,23.5256,VALID,92,VALID,0.721094,
2012-03-01, 03:43:04,VALID,997.161,VALID,0,VALID,95.1032,VALID,0,VALID,23.5238,VALID,95,VALID,1.3,
2012-03-01, 03:44:04,VALID,997.169,VALID,0.5,VALID,95.0956,VALID,0,VALID,23.5646,VALID,117,VALID,1.45117,
2012-03-01, 03:45:04,VALID,997.148,VALID,0,VALID,95.1032,VALID,0,VALID,23.5433,VALID,115,VALID,1.05273,
2012-03-01, 03:46:04,VALID,997.162,VALID,0,VALID,95.0651,VALID,0,VALID,23.5823,VALID,101,VALID,1.08477,
2012-03-01, 03:47:04,VALID,997.16,VALID,0,VALID,95.0574,VALID,0,VALID,23.5823,VALID,112,VALID,1.01445,
2012-03-01, 03:48:04,VALID,997.254,VALID,0,VALID,95.0422,VALID,0,VALID,23.6019,VALID,110,VALID,1.48828,
2012-03-01, 03:49:04,VALID,997.237,VALID,0,VALID,95.0269,VALID,0,VALID,23.6427,VALID,104,VALID,1.63594,